• In Deutschland
  • Länderverzeichnis
  • Für 7 Tage
  • Wassertemperatur
  • Satellitenkarten
  • Wetterkarte
  • Widgets
  • user-avatar
    Anmelden

    Stündliche Wetter Hrasdan

    Heute, 23 Juni, Freitag

    Zeit Temperatur Niederschläge Wind Luftdruck Luftfeuchtigkeit
    00:00 +8°C° 0 mm 1 m/S 612 mmHg 94%
    01:00 +7°C° 0 mm 1 m/S 611 mmHg 94%
    02:00 +7°C° 0 mm 1 m/S 611 mmHg 94%
    03:00 +7°C° 0 mm 1 m/S 611 mmHg 95%
    04:00 +8°C° 0 mm 1 m/S 612 mmHg 92%
    05:00 +9°C° 0 mm 1 m/S 612 mmHg 90%
    06:00 +10°C° 0 mm 1 m/S 613 mmHg 87%
    07:00 +13°C° 0 mm 1 m/S 614 mmHg 76%
    08:00 +15°C° 0 mm 1 m/S 615 mmHg 66%
    09:00 +19°C° 0 mm 1 m/S 616 mmHg 53%
    10:00 +19°C° 0,1 mm 1 m/S 616 mmHg 52%
    11:00 +20°C° 0,1 mm 1 m/S 616 mmHg 50%
    12:00 +21°C° 0,1 mm 1 m/S 616 mmHg 49%
    13:00 +20°C° 0,6 mm 1 m/S 616 mmHg 52%
    14:00 +20°C° 0,6 mm 1 m/S 615 mmHg 56%
    15:00 +19°C° 0 mm 1 m/S 615 mmHg 63%
    16:00 +18°C° 0,6 mm 1 m/S 615 mmHg 67%
    17:00 +18°C° 0,6 mm 1 m/S 614 mmHg 71%
    18:00 +16°C° 0,6 mm 1 m/S 614 mmHg 75%
    19:00 +14°C° 0,2 mm 1 m/S 614 mmHg 80%
    20:00 +12°C° 0,2 mm 1 m/S 613 mmHg 85%
    21:00 +10°C° 0,2 mm 1 m/S 613 mmHg 90%
    22:00 +9°C° 0 mm 1 m/S 613 mmHg 91%
    23:00 +9°C° 0 mm 1 m/S 613 mmHg 92%

    Morgen, 24 Juni, Samstag

    Zeit Temperatur Niederschläge Wind Luftdruck Luftfeuchtigkeit
    00:00 +8°C° 0 mm 1 m/S 613 mmHg 92%
    01:00 +8°C° 0 mm 1 m/S 613 mmHg 93%
    02:00 +7°C° 0 mm 1 m/S 613 mmHg 93%
    03:00 +7°C° 0 mm 1 m/S 613 mmHg 93%
    04:00 +8°C° 0 mm 1 m/S 613 mmHg 91%
    05:00 +9°C° 0 mm 1 m/S 613 mmHg 89%
    06:00 +10°C° 0 mm 1 m/S 614 mmHg 87%
    07:00 +13°C° 0 mm 1 m/S 615 mmHg 76%
    08:00 +15°C° 0 mm 1 m/S 615 mmHg 64%
    09:00 +19°C° 0 mm 1 m/S 616 mmHg 52%
    10:00 +20°C° 0 mm 1 m/S 616 mmHg 47%
    11:00 +22°C° 0 mm 1 m/S 617 mmHg 42%
    12:00 +23°C° 0 mm 1 m/S 617 mmHg 37%
    13:00 +24°C° 0 mm 1 m/S 617 mmHg 36%
    14:00 +24°C° 0 mm 2 m/S 616 mmHg 36%
    15:00 +24°C° 0 mm 2 m/S 616 mmHg 35%
    16:00 +23°C° 0 mm 1 m/S 615 mmHg 41%
    17:00 +22°C° 0 mm 1 m/S 615 mmHg 46%
    18:00 +21°C° 0 mm 1 m/S 615 mmHg 52%
    19:00 +18°C° 0 mm 1 m/S 614 mmHg 62%
    20:00 +14°C° 0 mm 1 m/S 613 mmHg 72%
    21:00 +11°C° 0 mm 1 m/S 612 mmHg 82%
    22:00 +11°C° 0 mm 1 m/S 612 mmHg 85%
    23:00 +11°C° 0 mm 1 m/S 612 mmHg 88%

    übermorgen, 25 Juni, Sonntag

    Zeit Temperatur Niederschläge Wind Luftdruck Luftfeuchtigkeit
    00:00 +11°C° 0 mm 1 m/S 612 mmHg 91%
    01:00 +10°C° 0 mm 1 m/S 612 mmHg 92%
    02:00 +10°C° 0 mm 1 m/S 612 mmHg 92%
    03:00 +9°C° 0 mm 1 m/S 612 mmHg 93%
    04:00 +10°C° 0 mm 1 m/S 612 mmHg 90%
    05:00 +12°C° 0 mm 1 m/S 613 mmHg 86%
    06:00 +13°C° 0 mm 1 m/S 614 mmHg 83%
    07:00 +15°C° 0 mm 1 m/S 615 mmHg 70%
    08:00 +19°C° 0 mm 1 m/S 615 mmHg 58%
    09:00 +21°C° 0 mm 1 m/S 616 mmHg 45%
    10:00 +23°C° 0 mm 1 m/S 617 mmHg 41%
    11:00 +24°C° 0 mm 1 m/S 617 mmHg 37%
    12:00 +25°C° 0 mm 1 m/S 617 mmHg 33%
    13:00 +25°C° 0 mm 2 m/S 617 mmHg 33%
    14:00 +25°C° 0 mm 2 m/S 616 mmHg 34%
    15:00 +25°C° 0 mm 2 m/S 616 mmHg 34%
    16:00 +24°C° 0 mm 2 m/S 616 mmHg 39%
    17:00 +23°C° 0 mm 2 m/S 615 mmHg 44%
    18:00 +20°C° 0 mm 2 m/S 615 mmHg 50%
    19:00 +18°C° 0 mm 2 m/S 615 mmHg 61%
    20:00 +15°C° 0 mm 2 m/S 614 mmHg 72%
    21:00 +12°C° 0 mm 1 m/S 614 mmHg 83%
    22:00 +12°C° 0 mm 1 m/S 614 mmHg 83%
    23:00 +12°C° 0 mm 1 m/S 614 mmHg 83%

    26 Juni, Montag

    Zeit Temperatur Niederschläge Wind Luftdruck Luftfeuchtigkeit
    00:00 +11°C° 0 mm 1 m/S 614 mmHg 84%
    01:00 +11°C° 0 mm 1 m/S 614 mmHg 84%
    02:00 +10°C° 0 mm 1 m/S 614 mmHg 85%
    03:00 +10°C° 0 mm 1 m/S 614 mmHg 86%
    04:00 +11°C° 0 mm 1 m/S 614 mmHg 83%
    05:00 +12°C° 0 mm 1 m/S 615 mmHg 80%
    06:00 +13°C° 0 mm 1 m/S 615 mmHg 77%
    07:00 +15°C° 0 mm 1 m/S 616 mmHg 67%
    08:00 +19°C° 0 mm 1 m/S 617 mmHg 57%
    09:00 +21°C° 0 mm 1 m/S 618 mmHg 47%
    10:00 +22°C° 0 mm 1 m/S 618 mmHg 44%
    11:00 +24°C° 0 mm 2 m/S 618 mmHg 41%
    12:00 +25°C° 0 mm 2 m/S 618 mmHg 38%
    13:00 +25°C° 0 mm 2 m/S 618 mmHg 38%
    14:00 +25°C° 0 mm 2 m/S 618 mmHg 39%
    15:00 +26°C° 0 mm 2 m/S 618 mmHg 39%
    16:00 +24°C° 0 mm 2 m/S 617 mmHg 45%
    17:00 +23°C° 0 mm 2 m/S 617 mmHg 51%
    18:00 +22°C° 0 mm 1 m/S 617 mmHg 56%
    19:00 +20°C° 0 mm 1 m/S 616 mmHg 67%
    20:00 +16°C° 0 mm 1 m/S 615 mmHg 77%
    21:00 +13°C° 0 mm 1 m/S 615 mmHg 88%
    22:00 +13°C° 0 mm 1 m/S 615 mmHg 88%
    23:00 +12°C° 0 mm 1 m/S 615 mmHg 89%

    27 Juni, Dienstag

    Zeit Temperatur Niederschläge Wind Luftdruck Luftfeuchtigkeit
    00:00 +12°C° 0 mm 1 m/S 615 mmHg 90%
    01:00 +12°C° 0 mm 1 m/S 614 mmHg 90%
    02:00 +11°C° 0 mm 1 m/S 614 mmHg 91%
    03:00 +11°C° 0 mm 1 m/S 614 mmHg 91%
    04:00 +12°C° 0 mm 1 m/S 615 mmHg 88%
    05:00 +13°C° 0 mm 1 m/S 615 mmHg 85%
    06:00 +15°C° 0 mm 1 m/S 616 mmHg 82%
    07:00 +18°C° 0 mm 1 m/S 617 mmHg 70%
    08:00 +21°C° 0 mm 1 m/S 618 mmHg 58%
    09:00 +24°C° 0 mm 1 m/S 618 mmHg 45%
    10:00 +26°C° 0 mm 1 m/S 619 mmHg 41%
    11:00 +27°C° 0 mm 1 m/S 619 mmHg 38%
    12:00 +28°C° 0 mm 1 m/S 619 mmHg 34%
    13:00 +29°C° 0 mm 1 m/S 618 mmHg 34%
    14:00 +29°C° 0 mm 2 m/S 618 mmHg 33%
    15:00 +29°C° 0 mm 2 m/S 618 mmHg 33%
    16:00 +28°C° 0 mm 1 m/S 617 mmHg 39%
    17:00 +26°C° 0 mm 1 m/S 617 mmHg 46%
    18:00 +25°C° 0 mm 1 m/S 617 mmHg 52%
    19:00 +22°C° 0 mm 1 m/S 616 mmHg 63%
    20:00 +19°C° 0 mm 1 m/S 615 mmHg 73%
    21:00 +15°C° 0 mm 1 m/S 615 mmHg 84%
    22:00 +15°C° 0 mm 1 m/S 615 mmHg 85%
    23:00 +14°C° 0 mm 1 m/S 614 mmHg 85%

    28 Juni, Mittwoch

    Zeit Temperatur Niederschläge Wind Luftdruck Luftfeuchtigkeit
    00:00 +13°C° 0 mm 1 m/S 614 mmHg 85%
    01:00 +13°C° 0 mm 1 m/S 614 mmHg 85%
    02:00 +13°C° 0 mm 1 m/S 614 mmHg 85%
    03:00 +12°C° 0 mm 1 m/S 614 mmHg 85%
    04:00 +13°C° 0 mm 1 m/S 614 mmHg 83%
    05:00 +15°C° 0 mm 1 m/S 615 mmHg 80%
    06:00 +16°C° 0 mm 1 m/S 616 mmHg 78%
    07:00 +19°C° 0 mm 1 m/S 616 mmHg 68%
    08:00 +22°C° 0 mm 1 m/S 617 mmHg 57%
    09:00 +25°C° 0 mm 1 m/S 618 mmHg 47%
    10:00 +26°C° 0 mm 1 m/S 618 mmHg 43%
    11:00 +27°C° 0 mm 1 m/S 618 mmHg 39%
    12:00 +29°C° 0 mm 1 m/S 618 mmHg 35%
    13:00 +29°C° 0 mm 2 m/S 618 mmHg 36%
    14:00 +29°C° 0 mm 2 m/S 617 mmHg 37%
    15:00 +29°C° 0 mm 2 m/S 617 mmHg 37%
    16:00 +27°C° 0,1 mm 2 m/S 616 mmHg 43%
    17:00 +26°C° 0,1 mm 2 m/S 616 mmHg 49%
    18:00 +25°C° 0,1 mm 2 m/S 615 mmHg 55%
    19:00 +21°C° 0,1 mm 2 m/S 615 mmHg 64%
    20:00 +18°C° 0,1 mm 2 m/S 614 mmHg 73%
    21:00 +15°C° 0,1 mm 2 m/S 613 mmHg 83%
    22:00 +15°C° 0 mm 1 m/S 613 mmHg 83%
    23:00 +14°C° 0 mm 1 m/S 613 mmHg 83%
    Mehr zeigen